{"data":{"norad_id":64157,"epoch":"2026-05-25T03:11:36.727008Z","epoch_age_seconds":59503,"freshness":"FRESH","line1":"1 64157U 25112M   26145.13306397  .00016924  00000+0  12428-2 0  9994","line2":"2 64157  97.6128 196.7014 0014447   0.4985 359.6252 15.03440545 54790","mean_motion":15.03440545,"eccentricity":0.0014447,"inclination_deg":97.6128,"raan_deg":196.7014,"arg_perigee_deg":0.4985,"mean_anomaly_deg":359.6252,"bstar":0.0012428,"rev_number":5479,"period_min":95.780309024458,"perigee_km":546.27856033836,"apogee_km":566.31491317734,"semimajor_km":6934.4337367579,"source":"CELESTRAK","updated_at":"2026-05-25T13:38:04.278135Z"}}